Home > Weather > Nukualofa > Past weeks

Flag for Tonga Past Weather in Nukualofa, Tonga — Yesterday and Last 2 Weeks

Now
79 °F

Passing clouds.


Feels Like: 81 °F
Forecast: 72 / 79 °F
Wind: 5 mph from Southeast

Location: Fua'Amotu

Current Time: Jul 27, 2016 at 2:23:33 PM

Latest Report: Jul 27, 2016 at 2:00 PM


Visibility: N/A

Pressure: 30.07 "Hg

Humidity: 70%

Dew Point: 68 °F

Location of NukualofaLocation

Past Weather in Nukualofa — Graph

°F

Nukualofa Temperature Yesterday

Maximum temperature yesterday: 81 °F (at 12:00 PM)
Minimum temperature yesterday: 72 °F (at 12:00 AM)
Average temperature yesterday: 75 °F

High & Low Weather Summary for the Past Weeks

 TemperatureHumidityPressure
High82 °F (Jul 25, 1:00 PM)100% (Jul 25, 7:00 AM)30.12 "Hg (Jul 25, 7:00 AM)
Low61 °F (Jul 19, 7:00 AM)47% (Jul 13, 3:00 PM)29.80 "Hg (Jul 12, 4:00 PM)
Average71 °F75%30.03 "Hg
* Reported Jul 12 1:00 PM — Jul 27 1:00 PM, Nukualofa, Weather by CustomWeather, © 2016

Note: Actual official high and low records may vary slightly from our data, if they occured in-between our weather recording intervals... More about our weather records

Advertising

Nukualofa Weather History for the Previous 24 Hours

Scroll right to see more
 ConditionsComfort  
Time TempWeatherWind HumidityBarometerVisibility
1:00 PM
Wed, Jul 27
77 °FScattered clouds.3 mph79%30.07 "HgN/A
12:00 PM79 °FPassing clouds.3 mph74%30.09 "HgN/A
11:00 AM79 °FPassing clouds.6 mph74%30.09 "HgN/A
10:00 AM77 °FPassing clouds.3 mph79%30.12 "HgN/A
9:00 AM73 °FPassing clouds.No wind89%30.09 "HgN/A
8:00 AM68 °FPassing clouds.No wind94%30.09 "HgN/A
7:00 AM66 °FPassing clouds.No wind100%30.09 "HgN/A
6:00 AM66 °FFog.No wind100%30.07 "Hg2 mi
5:00 AM68 °FPassing clouds.No wind94%30.07 "HgN/A
4:00 AM68 °FPassing clouds.No wind100%30.07 "HgN/A
3:00 AM70 °FPassing clouds.No wind94%30.07 "HgN/A
2:00 AM70 °FPassing clouds.No wind100%30.07 "HgN/A
1:00 AM72 °FPassing clouds.No wind94%30.07 "HgN/A
12:00 AM72 °FPassing clouds.No wind94%30.07 "HgN/A
11:00 PM
Tue, Jul 26
73 °FPassing clouds.No wind89%30.07 "HgN/A
10:00 PM72 °FPassing clouds.No wind94%30.07 "HgN/A
9:00 PM73 °FPassing clouds.No wind89%30.07 "HgN/A
8:00 PM73 °FPassing clouds.No wind89%30.07 "HgN/A
7:00 PM75 °FPassing clouds.6 mph83%30.04 "HgN/A
6:00 PM77 °FPassing clouds.7 mph79%30.04 "HgN/A
5:00 PM79 °FPassing clouds.6 mph74%30.04 "HgN/A
4:00 PM81 °FScattered clouds.3 mph70%30.01 "HgN/A
3:00 PM81 °FScattered clouds.3 mph74%30.04 "HgN/A
2:00 PM81 °FPassing clouds.6 mph74%30.04 "HgN/A
Weather by CustomWeather, © 2016

See weather overviewHow to use our weather pages